GFSSW_925_spd_231.txt.gz
Wind_Speed
12 13 13 14 14 14 14 11 11 12 13 14 15 16 16 16 11 12 9 11 14 18 18 20 17 11 8 3 3 2 2 3 5 5 7 7 4 3 4 5 3 4 4 8 30
12 12 14 15 15 16 14 11 10 9 11 13 16 16 15 12 5 13 9 15 15 15 18 12 9 14 2 3 3 3 4 5 5 3 4 6 7 3 4 4 6 6 5 23 24
11 13 14 14 14 15 15 12 9 9 10 13 15 16 13 9 1 4 16 17 16 17 18 12 9 4 2 2 3 3 4 7 12 4 7 8 6 6 4 4 3 6 9 13 16
11 12 13 14 14 14 14 12 10 10 10 13 16 17 12 4 4 10 18 17 15 15 18 14 4 2 2 2 3 4 5 7 10 9 3 4 8 7 4 4 7 8 15 9 9
11 12 12 13 13 14 14 12 11 10 11 12 14 14 7 4 3 13 16 17 13 18 19 9 9 5 3 5 7 3 7 9 11 7 5 3 5 3 8 5 6 5 10 11 9
11 11 12 14 14 15 14 13 12 11 11 11 12 12 3 5 9 12 14 11 12 13 13 14 5 8 4 4 4 5 6 8 6 8 5 3 5 3 4 8 6 7 8 8 9
10 10 12 13 16 15 13 14 14 9 8 10 10 9 5 2 4 8 9 14 14 11 5 9 9 5 7 5 6 5 6 7 6 3 3 4 6 5 8 7 10 8 8 8 11
9 10 11 13 15 14 15 14 10 9 9 7 8 6 2 4 6 11 13 6 10 8 5 7 9 2 2 5 5 2 1 4 5 4 6 7 8 6 10 7 11 13 10 9 10
9 11 11 13 14 15 15 11 7 9 9 6 7 3 3 4 6 11 10 8 10 4 5 4 3 1 5 3 3 4 2 3 6 4 2 5 3 11 11 9 12 11 15 13 9
8 10 11 14 14 15 12 5 4 9 3 4 4 3 5 6 11 8 5 10 5 9 1 4 4 2 3 4 2 4 4 5 5 7 9 7 7 9 12 5 8 8 8 11 9
8 9 10 13 13 15 13 2 6 6 10 4 3 3 3 16 3 5 9 10 4 2 4 3 5 6 6 6 4 4 4 8 10 12 7 4 7 9 13 11 9 10 7 7 8
7 9 10 12 10 17 16 7 3 1 2 2 1 2 3 9 3 3 15 5 5 5 6 3 6 5 6 4 3 2 3 6 9 7 8 8 14 16 14 17 15 8 8 8 7
6 7 8 9 5 11 18 9 0 0 2 2 2 2 4 4 3 5 8 6 4 6 8 2 3 7 4 3 3 4 4 3 5 8 4 9 6 3 5 13 16 15 6 6 6
4 5 8 4 3 5 4 6 3 2 4 7 2 2 3 2 2 4 4 2 4 6 6 3 4 7 7 5 6 5 6 6 7 7 3 6 4 8 9 6 2 8 8 11 8
4 3 6 9 2 4 2 6 4 1 4 4 5 5 5 2 3 4 3 4 4 7 4 4 6 6 6 6 8 2 3 3 3 5 5 2 4 7 5 9 9 10 9 10 10
3 3 3 2 4 2 3 2 2 5 3 5 3 5 4 2 2 3 2 3 1 2 2 6 2 3 3 6 3 6 5 5 1 2 2 3 4 5 3 5 5 13 14 14 13
3 1 3 2 0 2 3 2 5 6 4 6 3 5 4 4 3 1 5 7 5 7 8 7 3 1 1 4 3 4 3 3 4 3 5 2 3 6 6 9 10 11 16 17 15
3 1 2 2 2 3 2 5 7 3 4 4 2 4 3 5 5 7 5 4 7 6 4 5 7 1 2 1 3 4 2 1 3 2 4 6 4 3 3 5 9 11 11 14 17
5 3 2 2 0 2 4 5 7 6 4 2 2 6 5 4 2 4 4 3 1 3 4 6 6 5 4 3 1 3 2 3 0 1 2 3 5 4 16 18 20 19 17 16 16
8 4 3 1 0 2 4 3 3 3 2 1 3 3 1 4 4 1 5 2 2 2 3 2 5 2 4 3 4 2 4 1 2 3 4 4 4 5 19 19 20 19 17 17 16
6 3 1 2 2 4 3 5 3 4 3 3 4 2 2 1 2 3 3 1 2 2 5 3 3 7 4 1 3 1 1 2 2 2 2 2 4 5 9 12 15 18 15 14 15
6 2 2 3 4 2 3 5 3 4 2 3 3 2 2 1 2 1 2 1 4 1 2 2 1 5 7 5 4 3 4 2 2 3 3 2 3 3 10 11 10 12 11 13 12
4 2 3 1 3 2 2 1 3 4 4 4 5 3 5 4 1 2 2 5 6 3 3 1 1 4 8 2 3 3 3 2 6 3 4 2 3 3 8 11 14 14 15 16 17
4 2 2 3 1 5 4 3 2 2 1 3 2 6 4 2 2 4 2 1 4 3 6 4 2 4 4 3 1 3 2 5 2 1 4 3 5 14 16 15 17 15 15 15 15
2 3 2 4 4 4 5 7 5 4 2 5 2 6 5 2 3 3 3 1 5 3 1 2 2 3 8 11 9 7 5 5 2 4 3 2 2 5 10 11 10 8 12 15 15
5 4 1 3 2 7 5 6 9 4 7 4 5 6 7 5 7 7 4 2 3 2 2 3 2 2 4 4 3 6 7 3 2 3 2 3 2 4 4 6 8 10 11 12 13
6 5 4 5 4 5 5 6 10 9 7 5 10 3 6 8 4 4 3 1 4 4 2 0 2 3 4 1 3 5 5 4 2 1 1 2 0 4 3 5 6 7 7 8 10

GFSSW_925_spd_237.txt.gz
Wind_Speed
11 12 12 13 13 12 14 12 10 10 10 11 13 14 11 8 21 28 16 17 21 24 22 17 9 12 3 2 2 3 2 2 3 4 1 5 6 6 5 3 3 4 3 7 30
10 11 12 13 13 12 11 11 11 10 10 11 12 12 9 3 9 23 18 22 21 22 23 14 7 11 3 2 2 3 3 6 2 4 3 5 5 5 5 5 5 4 6 22 29
10 11 12 12 12 12 12 12 12 11 11 13 13 12 7 2 5 7 25 23 19 19 18 11 5 2 3 3 3 2 4 1 5 5 5 4 6 4 2 3 2 3 6 9 22
9 10 11 11 12 12 12 11 12 11 11 12 12 9 6 1 4 12 22 23 17 15 20 11 6 5 4 4 5 2 3 3 5 7 4 4 6 6 3 0 5 4 5 6 7
9 10 11 12 13 12 12 12 11 10 10 10 11 6 2 6 3 15 19 17 16 17 18 6 6 4 3 4 6 4 6 6 6 8 5 5 3 2 5 6 8 7 5 4 6
9 10 11 13 13 13 13 11 10 9 8 10 13 7 4 7 9 15 19 19 18 15 9 9 2 1 2 2 2 4 5 9 3 4 5 2 1 3 4 5 9 5 2 1 4
8 9 11 13 13 13 13 9 9 7 8 8 6 7 12 4 12 16 18 15 14 11 6 5 4 4 2 4 4 4 6 7 5 3 2 2 4 4 3 6 6 5 3 4 6
8 9 10 12 12 13 10 6 6 6 7 8 8 6 4 7 12 17 20 15 14 6 9 6 6 1 1 4 5 4 3 5 6 8 5 2 2 6 8 6 5 2 3 6 8
7 9 10 12 12 14 8 2 6 3 6 6 5 5 3 9 15 18 15 12 18 8 5 5 2 3 5 3 4 7 2 4 7 6 6 6 5 5 6 5 5 5 4 3 6
7 8 10 12 14 15 5 5 9 9 4 4 7 5 5 6 16 14 20 13 4 12 5 6 5 3 5 6 1 4 4 4 4 8 6 6 5 11 8 3 5 5 5 5 7
7 7 9 11 14 15 2 1 4 6 15 4 1 2 3 12 3 14 22 11 7 5 5 6 8 5 5 3 2 1 2 3 3 3 5 5 7 9 13 8 7 5 6 8 9
7 7 8 9 9 17 7 5 2 2 7 5 1 3 2 5 3 10 18 6 6 6 5 6 6 4 3 1 2 3 3 4 3 5 3 6 6 5 13 16 18 17 15 15 15
7 7 8 8 6 8 17 7 3 1 5 2 1 2 4 4 3 6 7 4 5 7 7 5 5 5 4 6 6 4 4 4 3 7 2 7 1 5 3 11 15 17 13 15 15
6 5 8 5 2 5 5 7 4 3 5 8 6 3 2 1 4 3 6 3 6 5 5 2 5 5 4 3 4 2 2 2 4 4 2 4 2 3 6 7 14 15 15 15 16
4 3 4 7 2 3 1 3 1 2 4 3 7 6 10 4 2 6 4 5 3 5 4 3 7 6 4 4 2 2 5 3 2 2 3 4 4 4 6 10 19 15 14 13 12
4 2 2 2 3 3 3 2 1 6 4 4 4 6 5 6 4 3 6 6 1 3 4 2 4 3 3 4 2 5 3 5 4 3 3 3 3 4 5 7 15 16 16 16 15
5 2 1 1 2 3 2 2 5 5 3 4 1 3 1 5 6 6 4 8 4 5 7 6 5 5 3 5 4 6 5 3 5 5 3 2 2 1 4 3 6 14 17 17 16
5 3 1 3 3 3 2 5 4 2 5 3 1 2 4 5 4 7 3 5 5 5 3 4 6 6 8 2 2 4 3 2 4 2 4 3 1 3 1 1 6 8 16 18 18
6 3 1 2 2 2 5 3 6 6 5 7 3 5 5 2 2 3 3 2 2 2 4 4 5 4 3 4 2 3 4 3 3 2 1 3 2 4 4 6 11 15 16 16 17
6 2 1 1 1 2 4 5 2 3 3 3 4 3 3 1 2 3 1 2 1 2 3 2 4 2 5 3 3 3 1 3 3 3 3 3 2 3 13 16 16 16 14 15 15
3 2 1 2 2 4 3 6 4 5 2 3 4 4 3 4 3 2 1 1 1 3 6 2 3 6 3 4 3 4 3 2 1 2 2 3 2 3 7 9 10 11 12 13 15
6 1 2 3 3 2 1 4 3 2 1 1 2 2 4 5 4 1 2 2 2 2 2 2 2 4 7 5 4 1 2 2 3 4 1 2 3 3 4 5 6 8 10 12 14
3 1 2 1 3 1 3 2 3 3 3 3 2 1 1 3 3 2 2 1 2 2 3 4 1 4 6 3 4 0 1 1 1 0 4 2 4 1 2 3 5 9 12 11 12
3 2 2 3 1 6 4 3 2 1 3 3 3 2 3 2 2 2 2 0 1 1 7 5 3 5 5 5 0 3 3 2 2 2 2 4 4 3 2 4 7 7 7 8 8
2 3 2 3 3 4 4 7 4 5 3 4 2 5 5 2 2 3 3 1 2 3 3 2 2 3 7 8 5 7 8 7 6 3 4 4 5 5 5 5 7 7 6 6 10
5 4 1 3 2 6 5 7 10 4 7 5 5 7 6 5 6 7 5 3 3 2 2 1 3 3 4 4 6 9 8 7 5 3 7 4 6 7 3 5 5 6 5 5 6
7 4 1 5 3 4 5 6 10 9 5 3 8 5 6 7 5 3 3 4 3 5 4 2 2 3 5 2 5 4 6 10 4 6 5 7 7 5 5 8 6 5 4 4 5

GFSSW_925_spd_240.txt.gz
Wind_Speed
12 13 12 13 14 14 14 13 13 13 12 13 12 10 6 7 19 28 17 18 17 21 24 21 11 11 4 4 5 1 4 2 2 1 1 5 6 4 3 2 3 4 2 1 29
11 12 12 13 14 14 14 13 13 12 12 12 13 10 8 5 6 18 19 22 20 22 21 14 7 10 3 3 3 4 2 5 4 3 3 7 5 6 5 4 4 3 7 17 24
10 11 12 13 14 14 13 13 13 12 11 12 13 9 8 2 4 7 24 24 23 20 15 9 4 3 4 3 5 2 2 4 5 7 6 5 7 5 6 5 3 5 4 5 17
10 11 12 13 14 13 13 14 14 12 11 11 11 5 10 4 3 12 23 24 21 17 19 12 6 4 4 3 4 2 4 3 4 7 7 6 7 4 6 4 8 7 6 4 8
10 11 12 13 14 14 14 14 13 11 10 11 11 5 3 6 2 16 22 20 16 18 19 5 7 4 3 3 3 4 5 6 7 7 5 5 5 2 5 6 7 8 8 6 5
9 11 12 13 14 14 14 12 11 9 8 11 15 10 5 7 12 17 19 17 19 16 11 10 3 2 2 3 3 4 4 8 6 6 5 3 2 3 6 8 10 8 5 4 4
9 11 12 14 14 15 13 10 9 7 6 7 9 4 12 2 13 18 20 13 16 10 5 5 4 4 1 2 3 2 4 3 9 8 4 3 3 5 7 7 7 7 4 3 1
10 11 12 14 15 16 11 8 7 6 6 7 7 6 4 10 14 21 23 15 15 7 8 5 4 2 2 4 4 5 4 4 4 12 7 5 3 3 9 8 7 7 6 6 4
10 10 12 14 15 16 8 9 7 2 6 10 5 5 4 11 15 21 20 11 11 13 6 3 3 3 6 3 4 7 3 5 6 6 4 6 2 9 12 7 7 7 7 7 9
9 9 11 13 15 15 3 3 10 8 5 3 8 4 6 7 17 19 18 12 4 8 4 8 5 4 5 8 3 4 4 4 3 7 6 6 8 12 16 10 10 11 13 13 12
8 9 10 12 13 15 4 2 5 6 14 4 2 4 3 15 4 18 16 8 7 7 5 6 8 6 5 3 2 2 1 3 3 2 6 6 8 10 13 19 17 15 15 15 14
8 9 10 12 10 16 7 7 3 2 5 4 2 2 2 6 4 12 14 6 7 5 6 6 6 7 4 4 3 3 2 5 5 4 3 5 5 7 10 10 12 13 14 15 16
9 10 11 11 6 9 18 8 4 3 3 3 2 2 4 5 3 8 8 3 6 6 7 5 3 6 4 6 6 2 3 3 3 6 3 3 3 4 3 7 9 12 9 11 14
8 9 11 8 2 5 5 6 3 3 5 6 5 4 4 2 4 4 7 2 6 3 3 2 5 5 6 3 4 2 1 3 5 4 2 3 2 2 5 5 13 14 14 13 15
5 8 10 11 3 4 3 4 1 1 4 3 7 6 8 4 4 7 8 5 4 4 3 3 6 6 5 3 3 4 6 3 2 2 2 6 4 1 6 9 17 15 14 13 13
2 4 6 5 5 4 4 1 1 6 4 6 4 7 4 6 7 6 6 8 2 3 4 2 3 2 2 4 1 6 2 4 3 2 3 4 3 3 5 6 10 11 12 14 15
3 3 4 5 2 4 3 2 5 5 2 6 3 5 2 6 5 6 4 9 5 5 7 7 4 5 4 4 5 7 5 3 4 5 4 2 2 2 2 2 5 12 14 13 13
3 1 4 4 2 3 3 5 4 2 5 1 2 3 4 6 4 7 2 3 5 5 4 3 6 6 7 3 4 4 3 3 2 3 4 4 2 3 2 3 6 6 8 11 16
3 1 1 2 2 2 5 4 6 6 4 5 3 5 3 3 2 4 4 1 1 2 5 4 5 5 3 2 2 6 4 2 3 3 1 3 2 3 3 5 11 13 14 17 18
4 1 2 2 1 3 4 4 1 3 4 3 4 3 2 3 2 3 3 1 2 3 2 1 5 2 5 2 1 2 4 4 3 3 4 4 4 3 8 12 11 13 14 14 15
6 3 0 1 1 4 3 6 4 4 1 3 5 4 2 2 1 1 2 2 1 1 4 1 2 6 2 3 2 4 4 2 1 1 1 3 4 2 5 6 8 9 10 11 13
6 1 1 4 3 1 2 6 4 4 2 2 4 3 5 5 3 2 3 3 1 5 2 2 1 4 7 5 1 2 2 1 3 5 1 2 4 2 4 4 5 8 10 9 8
4 2 2 3 2 2 3 1 3 3 3 4 4 2 2 4 0 3 3 1 3 2 4 4 1 3 7 4 3 1 2 1 2 1 3 2 5 3 2 4 5 8 9 7 8
3 2 2 2 1 4 4 3 3 3 4 3 4 4 3 2 2 2 2 1 2 2 6 5 2 5 5 5 2 3 3 4 2 2 2 5 6 4 5 5 5 5 7 7 7
2 3 2 3 4 4 4 7 4 5 2 3 1 4 5 3 2 3 2 2 2 5 2 3 3 2 7 8 3 7 9 8 10 8 5 4 5 5 6 7 5 6 6 7 7
5 4 1 2 3 6 5 6 9 4 7 5 5 7 7 6 8 7 6 4 4 2 2 2 2 1 5 5 4 10 13 11 12 12 10 8 15 5 6 2 7 7 4 6 6
7 2 3 4 4 4 5 5 8 7 6 2 8 6 7 8 5 2 4 2 3 5 4 3 2 3 5 3 5 6 9 14 8 4 6 6 7 3 4 7 7 6 4 5 5

GFSSW_925_spd_246.txt.gz
Wind_Speed
11 12 12 13 13 13 14 13 13 12 12 12 10 8 5 7 20 26 27 20 19 23 17 10 6 4 4 4 5 3 3 3 2 3 2 7 6 4 3 4 3 5 4 2 18
11 12 13 13 14 14 14 13 12 12 12 11 10 9 4 4 7 29 20 23 21 21 11 11 7 6 4 3 4 2 2 2 4 6 6 10 7 7 2 4 6 4 8 7 20
11 12 13 13 14 14 14 13 12 12 12 10 8 12 8 2 4 10 26 23 20 21 4 6 3 3 6 4 6 3 2 2 2 6 9 9 7 12 1 6 10 13 4 7 16
11 11 13 13 13 14 13 13 11 12 13 14 11 7 12 3 4 12 25 19 17 18 5 11 5 3 4 5 4 2 6 5 5 7 6 6 10 7 14 9 12 11 4 3 5
10 11 12 13 14 13 11 11 10 10 13 17 19 10 5 8 7 17 21 15 13 14 15 4 12 4 6 4 4 6 5 3 8 4 5 8 5 3 14 21 11 10 9 8 7
11 11 12 13 14 13 9 8 7 5 8 13 15 18 6 9 12 18 15 14 14 11 12 12 5 5 7 4 4 1 1 7 8 5 6 5 5 2 17 19 14 14 17 15 20
10 11 12 12 15 13 8 6 6 6 7 8 7 7 23 8 13 17 13 12 11 9 5 8 3 2 1 3 2 1 2 2 17 12 4 7 4 13 18 10 14 16 14 16 20
10 10 11 12 15 11 8 7 5 6 9 7 8 8 6 8 17 18 16 9 9 11 5 6 5 5 4 1 1 1 1 2 12 17 4 6 5 15 16 10 14 14 13 13 16
9 10 11 12 13 8 9 12 12 3 5 8 7 4 4 9 15 20 14 8 5 6 9 5 4 5 3 1 3 5 4 7 2 17 5 5 3 14 13 10 13 13 13 12 13
9 9 11 12 12 9 3 5 7 8 4 4 11 3 6 8 12 17 10 10 6 3 1 7 5 7 13 6 3 5 3 3 6 9 10 11 10 10 12 13 13 13 13 13 14
8 9 11 11 12 11 2 1 1 2 16 7 1 4 3 14 5 19 12 6 4 7 4 7 11 11 10 6 2 2 1 4 2 5 5 9 9 9 11 14 15 14 14 14 14
7 9 10 9 8 12 7 5 3 4 9 7 3 3 2 6 5 22 16 5 8 8 2 4 11 8 2 5 3 4 2 5 1 6 2 5 7 6 11 12 13 13 13 14 14
7 8 9 7 5 13 17 7 4 2 4 4 3 3 4 7 5 13 12 4 6 8 13 9 4 5 2 8 2 4 7 6 3 5 1 4 4 3 2 6 11 12 12 13 14
6 8 9 3 2 4 5 3 2 2 3 8 5 4 3 2 4 4 7 2 5 5 3 5 4 4 4 4 7 3 6 5 4 4 2 1 0 6 1 1 11 13 13 13 14
5 6 7 8 3 3 2 1 1 2 3 3 3 5 4 5 4 10 7 4 5 4 2 2 5 6 5 4 5 4 8 3 1 2 2 4 4 5 0 1 11 13 13 13 13
3 4 4 2 6 4 2 2 1 3 0 1 3 5 2 6 2 4 5 7 0 2 4 3 1 3 5 3 2 10 3 1 1 1 3 1 3 5 2 2 8 11 11 12 13
1 3 4 4 2 3 2 1 4 4 1 1 2 3 3 6 5 7 4 9 5 2 6 4 2 2 3 3 0 11 3 1 2 1 1 1 4 4 4 3 6 9 10 10 11
2 2 6 6 3 3 2 2 3 2 3 0 1 2 3 5 3 4 2 3 7 4 3 4 0 6 6 4 4 6 5 3 4 3 3 1 3 3 4 2 4 4 6 8 11
5 3 3 3 2 3 1 3 4 5 3 6 2 2 1 0 2 1 4 2 2 2 2 3 2 3 2 2 4 4 4 2 1 2 3 1 2 4 5 3 4 5 7 10 11
6 3 1 1 1 1 4 3 2 1 3 1 2 1 1 1 1 0 1 1 2 1 0 3 4 1 3 1 1 3 1 1 1 4 3 1 4 3 2 3 4 5 8 10 11
6 2 1 0 2 2 3 3 2 2 1 1 3 3 1 1 0 1 2 2 2 2 1 2 1 1 2 4 4 2 1 1 1 2 2 4 1 2 3 5 6 5 7 9 11
6 1 1 2 3 1 3 5 3 4 2 1 2 2 3 5 2 2 2 1 3 5 2 2 0 3 2 1 3 3 4 3 2 1 1 2 4 3 6 6 6 6 7 8 9
4 2 3 1 3 2 1 2 2 4 3 4 3 1 1 3 1 2 2 2 4 3 3 4 2 3 3 1 1 4 4 3 1 1 6 2 2 3 7 7 7 7 7 8 7
3 3 2 2 1 5 5 3 3 1 3 3 3 3 3 1 1 3 3 3 3 3 5 5 1 3 3 1 2 4 5 7 6 4 3 8 7 7 7 7 4 5 4 5 5
2 3 2 4 3 3 3 6 5 5 2 4 2 7 5 4 1 4 3 4 2 8 3 2 2 3 6 9 6 9 10 8 12 11 6 1 5 10 9 8 4 4 3 4 5
5 4 0 2 3 6 5 6 8 4 7 4 5 6 8 5 5 7 8 6 4 6 4 2 1 1 4 1 2 7 12 12 13 16 16 15 20 10 6 3 5 7 5 5 5
5 4 3 4 4 4 5 6 7 7 3 1 6 4 7 7 2 3 3 3 5 6 7 4 3 1 4 2 6 6 7 14 8 8 13 8 9 2 2 5 7 8 7 7 5